Location: El Gallo
(32.4380°N, 116.9347°W)
Time: 20:54:39
(UTC+00:00)

Meteor 1-11 Rocket - Pass Details

Date: 01 October 2022
Orbit: 830 x 916 km, 81.2° (Epoch: 02 December)

Event Time Altitude Azimuth Distance (km) Brightness Sun altitude
Rises 12:07:22 0° 346° (NNW) 3,557 6.9 -20.7°
Reaches altitude 10° 12:09:54 10° 341° (NNW) 2,610 6.1 -20.2°
Maximum altitude 12:15:40 53° 267° (W) 1,107 3.9 -19.0°
Drops below altitude 10° 12:21:21 10° 191° (SSW) 2,566 6.0 -17.8°
Sets 12:23:50 0° 187° (S) 3,492 6.8 -17.3°
